Index of /20260428/WXO-DD/model_gdps/15km/00/096
Name Last modified Size Description
Parent Directory -
20260428T00Z_MSC_GDPS_AbsoluteVorticity_IsbL-0200_LatLon0.15_PT096H.grib2 2026-04-28 04:29 1.2M
20260428T00Z_MSC_GDPS_AbsoluteVorticity_IsbL-0250_LatLon0.15_PT096H.grib2 2026-04-28 04:29 1.3M
20260428T00Z_MSC_GDPS_AbsoluteVorticity_IsbL-0500_LatLon0.15_PT096H.grib2 2026-04-28 04:29 1.2M
20260428T00Z_MSC_GDPS_AbsoluteVorticity_IsbL-0700_LatLon0.15_PT096H.grib2 2026-04-28 04:29 1.6M
20260428T00Z_MSC_GDPS_AbsoluteVorticity_IsbL-0850_LatLon0.15_PT096H.grib2 2026-04-28 04:29 1.6M
20260428T00Z_MSC_GDPS_AirTemp-Max_AGL-2m_LatLon0.15_PT096H.grib2 2026-04-28 04:29 745K
20260428T00Z_MSC_GDPS_AirTemp-Min_AGL-2m_LatLon0.15_PT096H.grib2 2026-04-28 04:29 793K
20260428T00Z_MSC_GDPS_AirTemp_AGL-120m_LatLon0.15_PT096H.grib2 2026-04-28 04:29 791K
20260428T00Z_MSC_GDPS_AirTemp_AGL-2m_LatLon0.15_PT096H.grib2 2026-04-28 04:29 1.0M
20260428T00Z_MSC_GDPS_AirTemp_AGL-40m_LatLon0.15_PT096H.grib2 2026-04-28 04:29 814K
20260428T00Z_MSC_GDPS_AirTemp_AGL-80m_LatLon0.15_PT096H.grib2 2026-04-28 04:29 802K
20260428T00Z_MSC_GDPS_AirTemp_IsbL-0001_LatLon0.15_PT096H.grib2 2026-04-28 04:29 711K
20260428T00Z_MSC_GDPS_AirTemp_IsbL-0005_LatLon0.15_PT096H.grib2 2026-04-28 04:29 682K
20260428T00Z_MSC_GDPS_AirTemp_IsbL-0010_LatLon0.15_PT096H.grib2 2026-04-28 04:29 752K
20260428T00Z_MSC_GDPS_AirTemp_IsbL-0020_LatLon0.15_PT096H.grib2 2026-04-28 04:29 781K
20260428T00Z_MSC_GDPS_AirTemp_IsbL-0030_LatLon0.15_PT096H.grib2 2026-04-28 04:29 745K
20260428T00Z_MSC_GDPS_AirTemp_IsbL-0050_LatLon0.15_PT096H.grib2 2026-04-28 04:29 800K
20260428T00Z_MSC_GDPS_AirTemp_IsbL-0100_LatLon0.15_PT096H.grib2 2026-04-28 04:29 1.0M
20260428T00Z_MSC_GDPS_AirTemp_IsbL-0150_LatLon0.15_PT096H.grib2 2026-04-28 04:29 965K
20260428T00Z_MSC_GDPS_AirTemp_IsbL-0175_LatLon0.15_PT096H.grib2 2026-04-28 04:29 950K
20260428T00Z_MSC_GDPS_AirTemp_IsbL-0200_LatLon0.15_PT096H.grib2 2026-04-28 04:29 965K
20260428T00Z_MSC_GDPS_AirTemp_IsbL-0225_LatLon0.15_PT096H.grib2 2026-04-28 04:29 1.0M
20260428T00Z_MSC_GDPS_AirTemp_IsbL-0250_LatLon0.15_PT096H.grib2 2026-04-28 04:29 1.0M
20260428T00Z_MSC_GDPS_AirTemp_IsbL-0275_LatLon0.15_PT096H.grib2 2026-04-28 04:29 1.0M
20260428T00Z_MSC_GDPS_AirTemp_IsbL-0300_LatLon0.15_PT096H.grib2 2026-04-28 04:29 1.0M
20260428T00Z_MSC_GDPS_AirTemp_IsbL-0350_LatLon0.15_PT096H.grib2 2026-04-28 04:29 919K
20260428T00Z_MSC_GDPS_AirTemp_IsbL-0400_LatLon0.15_PT096H.grib2 2026-04-28 04:29 936K
20260428T00Z_MSC_GDPS_AirTemp_IsbL-0450_LatLon0.15_PT096H.grib2 2026-04-28 04:29 738K
20260428T00Z_MSC_GDPS_AirTemp_IsbL-0500_LatLon0.15_PT096H.grib2 2026-04-28 04:29 762K
20260428T00Z_MSC_GDPS_AirTemp_IsbL-0550_LatLon0.15_PT096H.grib2 2026-04-28 04:29 797K
20260428T00Z_MSC_GDPS_AirTemp_IsbL-0600_LatLon0.15_PT096H.grib2 2026-04-28 04:29 890K
20260428T00Z_MSC_GDPS_AirTemp_IsbL-0650_LatLon0.15_PT096H.grib2 2026-04-28 04:29 918K
20260428T00Z_MSC_GDPS_AirTemp_IsbL-0700_LatLon0.15_PT096H.grib2 2026-04-28 04:29 946K
20260428T00Z_MSC_GDPS_AirTemp_IsbL-0750_LatLon0.15_PT096H.grib2 2026-04-28 04:29 1.0M
20260428T00Z_MSC_GDPS_AirTemp_IsbL-0800_LatLon0.15_PT096H.grib2 2026-04-28 04:29 1.1M
20260428T00Z_MSC_GDPS_AirTemp_IsbL-0850_LatLon0.15_PT096H.grib2 2026-04-28 04:29 1.1M
20260428T00Z_MSC_GDPS_AirTemp_IsbL-0875_LatLon0.15_PT096H.grib2 2026-04-28 04:29 1.1M
20260428T00Z_MSC_GDPS_AirTemp_IsbL-0900_LatLon0.15_PT096H.grib2 2026-04-28 04:29 1.1M
20260428T00Z_MSC_GDPS_AirTemp_IsbL-0925_LatLon0.15_PT096H.grib2 2026-04-28 04:29 1.1M
20260428T00Z_MSC_GDPS_AirTemp_IsbL-0950_LatLon0.15_PT096H.grib2 2026-04-28 04:29 1.1M
20260428T00Z_MSC_GDPS_AirTemp_IsbL-0970_LatLon0.15_PT096H.grib2 2026-04-28 04:29 1.2M
20260428T00Z_MSC_GDPS_AirTemp_IsbL-0985_LatLon0.15_PT096H.grib2 2026-04-28 04:29 1.1M
20260428T00Z_MSC_GDPS_AirTemp_IsbL-1000_LatLon0.15_PT096H.grib2 2026-04-28 04:29 1.1M
20260428T00Z_MSC_GDPS_AirTemp_IsbL-1015_LatLon0.15_PT096H.grib2 2026-04-28 04:29 1.1M
20260428T00Z_MSC_GDPS_Albedo_Sfc_LatLon0.15_PT096H.grib2 2026-04-28 04:29 243K
20260428T00Z_MSC_GDPS_CAPE_Sfc_LatLon0.15_PT096H.grib2 2026-04-28 04:29 3.9M
20260428T00Z_MSC_GDPS_CIN_Sfc_LatLon0.15_PT096H.grib2 2026-04-28 04:29 2.9M
20260428T00Z_MSC_GDPS_CloudWater_EAtm_LatLon0.15_PT096H.grib2 2026-04-28 04:29 534K
20260428T00Z_MSC_GDPS_ConvectivePrecip-Accum_Sfc_LatLon0.15_PT096H.grib2 2026-04-28 04:29 3.3M
20260428T00Z_MSC_GDPS_DewPointDepression_AGL-2m_LatLon0.15_PT096H.grib2 2026-04-28 04:29 757K
20260428T00Z_MSC_GDPS_DewPointDepression_IsbL-0010_LatLon0.15_PT096H.grib2 2026-04-28 04:29 56K
20260428T00Z_MSC_GDPS_DewPointDepression_IsbL-0020_LatLon0.15_PT096H.grib2 2026-04-28 04:29 61K
20260428T00Z_MSC_GDPS_DewPointDepression_IsbL-0030_LatLon0.15_PT096H.grib2 2026-04-28 04:29 70K
20260428T00Z_MSC_GDPS_DewPointDepression_IsbL-0050_LatLon0.15_PT096H.grib2 2026-04-28 04:29 369K
20260428T00Z_MSC_GDPS_DewPointDepression_IsbL-0100_LatLon0.15_PT096H.grib2 2026-04-28 04:29 406K
20260428T00Z_MSC_GDPS_DewPointDepression_IsbL-0150_LatLon0.15_PT096H.grib2 2026-04-28 04:29 457K
20260428T00Z_MSC_GDPS_DewPointDepression_IsbL-0175_LatLon0.15_PT096H.grib2 2026-04-28 04:29 568K
20260428T00Z_MSC_GDPS_DewPointDepression_IsbL-0200_LatLon0.15_PT096H.grib2 2026-04-28 04:29 689K
20260428T00Z_MSC_GDPS_DewPointDepression_IsbL-0225_LatLon0.15_PT096H.grib2 2026-04-28 04:29 789K
20260428T00Z_MSC_GDPS_DewPointDepression_IsbL-0250_LatLon0.15_PT096H.grib2 2026-04-28 04:29 864K
20260428T00Z_MSC_GDPS_DewPointDepression_IsbL-0275_LatLon0.15_PT096H.grib2 2026-04-28 04:29 874K
20260428T00Z_MSC_GDPS_DewPointDepression_IsbL-0300_LatLon0.15_PT096H.grib2 2026-04-28 04:29 912K
20260428T00Z_MSC_GDPS_DewPointDepression_IsbL-0350_LatLon0.15_PT096H.grib2 2026-04-28 04:29 937K
20260428T00Z_MSC_GDPS_DewPointDepression_IsbL-0400_LatLon0.15_PT096H.grib2 2026-04-28 04:29 1.0M
20260428T00Z_MSC_GDPS_DewPointDepression_IsbL-0450_LatLon0.15_PT096H.grib2 2026-04-28 04:29 1.0M
20260428T00Z_MSC_GDPS_DewPointDepression_IsbL-0500_LatLon0.15_PT096H.grib2 2026-04-28 04:29 1.0M
20260428T00Z_MSC_GDPS_DewPointDepression_IsbL-0550_LatLon0.15_PT096H.grib2 2026-04-28 04:29 1.0M
20260428T00Z_MSC_GDPS_DewPointDepression_IsbL-0600_LatLon0.15_PT096H.grib2 2026-04-28 04:29 1.1M
20260428T00Z_MSC_GDPS_DewPointDepression_IsbL-0650_LatLon0.15_PT096H.grib2 2026-04-28 04:29 1.1M
20260428T00Z_MSC_GDPS_DewPointDepression_IsbL-0700_LatLon0.15_PT096H.grib2 2026-04-28 04:29 1.1M
20260428T00Z_MSC_GDPS_DewPointDepression_IsbL-0750_LatLon0.15_PT096H.grib2 2026-04-28 04:29 1.1M
20260428T00Z_MSC_GDPS_DewPointDepression_IsbL-0800_LatLon0.15_PT096H.grib2 2026-04-28 04:29 1.2M
20260428T00Z_MSC_GDPS_DewPointDepression_IsbL-0850_LatLon0.15_PT096H.grib2 2026-04-28 04:29 1.2M
20260428T00Z_MSC_GDPS_DewPointDepression_IsbL-0875_LatLon0.15_PT096H.grib2 2026-04-28 04:29 1.1M
20260428T00Z_MSC_GDPS_DewPointDepression_IsbL-0900_LatLon0.15_PT096H.grib2 2026-04-28 04:29 1.1M
20260428T00Z_MSC_GDPS_DewPointDepression_IsbL-0925_LatLon0.15_PT096H.grib2 2026-04-28 04:29 1.0M
20260428T00Z_MSC_GDPS_DewPointDepression_IsbL-0950_LatLon0.15_PT096H.grib2 2026-04-28 04:29 1.0M
20260428T00Z_MSC_GDPS_DewPointDepression_IsbL-0970_LatLon0.15_PT096H.grib2 2026-04-28 04:29 1.0M
20260428T00Z_MSC_GDPS_DewPointDepression_IsbL-0985_LatLon0.15_PT096H.grib2 2026-04-28 04:29 1.0M
20260428T00Z_MSC_GDPS_DewPointDepression_IsbL-1000_LatLon0.15_PT096H.grib2 2026-04-28 04:29 971K
20260428T00Z_MSC_GDPS_DewPointDepression_IsbL-1015_LatLon0.15_PT096H.grib2 2026-04-28 04:29 909K
20260428T00Z_MSC_GDPS_DewPoint_AGL-2m_LatLon0.15_PT096H.grib2 2026-04-28 04:29 601K
20260428T00Z_MSC_GDPS_DownwardLongwaveRadiationFlux-Accum_Sfc_LatLon0.15_PT096H.grib2 2026-04-28 04:29 721K
20260428T00Z_MSC_GDPS_DownwardShortwaveRadiationFlux-Accum_NTAtm_LatLon0.15_PT096H.grib2 2026-04-28 04:29 220K
20260428T00Z_MSC_GDPS_DownwardShortwaveRadiationFlux-Accum_Sfc_LatLon0.15_PT096H.grib2 2026-04-28 04:29 946K
20260428T00Z_MSC_GDPS_FreezingRain-Accum12h_Sfc_LatLon0.15_PT096H.grib2 2026-04-28 04:29 118K
20260428T00Z_MSC_GDPS_FreezingRain-Accum1h_Sfc_LatLon0.15_PT096H.grib2 2026-04-28 04:29 40K
20260428T00Z_MSC_GDPS_FreezingRain-Accum24h_Sfc_LatLon0.15_PT096H.grib2 2026-04-28 04:29 174K
20260428T00Z_MSC_GDPS_FreezingRain-Accum3h_Sfc_LatLon0.15_PT096H.grib2 2026-04-28 04:29 53K
20260428T00Z_MSC_GDPS_FreezingRain-Accum6h_Sfc_LatLon0.15_PT096H.grib2 2026-04-28 04:29 75K
20260428T00Z_MSC_GDPS_FreezingRain-Accum_Sfc_LatLon0.15_PT096H.grib2 2026-04-28 04:29 393K
20260428T00Z_MSC_GDPS_GeopotentialHeight_IsbL-0001_LatLon0.15_PT096H.grib2 2026-04-28 04:29 369K
20260428T00Z_MSC_GDPS_GeopotentialHeight_IsbL-0005_LatLon0.15_PT096H.grib2 2026-04-28 04:29 480K
20260428T00Z_MSC_GDPS_GeopotentialHeight_IsbL-0010_LatLon0.15_PT096H.grib2 2026-04-28 04:29 469K
20260428T00Z_MSC_GDPS_GeopotentialHeight_IsbL-0020_LatLon0.15_PT096H.grib2 2026-04-28 04:29 410K
20260428T00Z_MSC_GDPS_GeopotentialHeight_IsbL-0030_LatLon0.15_PT096H.grib2 2026-04-28 04:29 565K
20260428T00Z_MSC_GDPS_GeopotentialHeight_IsbL-0050_LatLon0.15_PT096H.grib2 2026-04-28 04:29 568K
20260428T00Z_MSC_GDPS_GeopotentialHeight_IsbL-0100_LatLon0.15_PT096H.grib2 2026-04-28 04:29 605K
20260428T00Z_MSC_GDPS_GeopotentialHeight_IsbL-0150_LatLon0.15_PT096H.grib2 2026-04-28 04:29 628K
20260428T00Z_MSC_GDPS_GeopotentialHeight_IsbL-0175_LatLon0.15_PT096H.grib2 2026-04-28 04:29 630K
20260428T00Z_MSC_GDPS_GeopotentialHeight_IsbL-0200_LatLon0.15_PT096H.grib2 2026-04-28 04:29 635K
20260428T00Z_MSC_GDPS_GeopotentialHeight_IsbL-0225_LatLon0.15_PT096H.grib2 2026-04-28 04:29 638K
20260428T00Z_MSC_GDPS_GeopotentialHeight_IsbL-0250_LatLon0.15_PT096H.grib2 2026-04-28 04:29 641K
20260428T00Z_MSC_GDPS_GeopotentialHeight_IsbL-0275_LatLon0.15_PT096H.grib2 2026-04-28 04:29 639K
20260428T00Z_MSC_GDPS_GeopotentialHeight_IsbL-0300_LatLon0.15_PT096H.grib2 2026-04-28 04:29 639K
20260428T00Z_MSC_GDPS_GeopotentialHeight_IsbL-0350_LatLon0.15_PT096H.grib2 2026-04-28 04:29 631K
20260428T00Z_MSC_GDPS_GeopotentialHeight_IsbL-0400_LatLon0.15_PT096H.grib2 2026-04-28 04:29 623K
20260428T00Z_MSC_GDPS_GeopotentialHeight_IsbL-0450_LatLon0.15_PT096H.grib2 2026-04-28 04:29 615K
20260428T00Z_MSC_GDPS_GeopotentialHeight_IsbL-0500_LatLon0.15_PT096H.grib2 2026-04-28 04:29 536K
20260428T00Z_MSC_GDPS_GeopotentialHeight_IsbL-0550_LatLon0.15_PT096H.grib2 2026-04-28 04:29 529K
20260428T00Z_MSC_GDPS_GeopotentialHeight_IsbL-0600_LatLon0.15_PT096H.grib2 2026-04-28 04:29 521K
20260428T00Z_MSC_GDPS_GeopotentialHeight_IsbL-0650_LatLon0.15_PT096H.grib2 2026-04-28 04:29 687K
20260428T00Z_MSC_GDPS_GeopotentialHeight_IsbL-0700_LatLon0.15_PT096H.grib2 2026-04-28 04:29 681K
20260428T00Z_MSC_GDPS_GeopotentialHeight_IsbL-0750_LatLon0.15_PT096H.grib2 2026-04-28 04:29 686K
20260428T00Z_MSC_GDPS_GeopotentialHeight_IsbL-0800_LatLon0.15_PT096H.grib2 2026-04-28 04:29 696K
20260428T00Z_MSC_GDPS_GeopotentialHeight_IsbL-0850_LatLon0.15_PT096H.grib2 2026-04-28 04:29 712K
20260428T00Z_MSC_GDPS_GeopotentialHeight_IsbL-0875_LatLon0.15_PT096H.grib2 2026-04-28 04:29 713K
20260428T00Z_MSC_GDPS_GeopotentialHeight_IsbL-0900_LatLon0.15_PT096H.grib2 2026-04-28 04:29 722K
20260428T00Z_MSC_GDPS_GeopotentialHeight_IsbL-0925_LatLon0.15_PT096H.grib2 2026-04-28 04:29 732K
20260428T00Z_MSC_GDPS_GeopotentialHeight_IsbL-0950_LatLon0.15_PT096H.grib2 2026-04-28 04:29 738K
20260428T00Z_MSC_GDPS_GeopotentialHeight_IsbL-0970_LatLon0.15_PT096H.grib2 2026-04-28 04:29 749K
20260428T00Z_MSC_GDPS_GeopotentialHeight_IsbL-0985_LatLon0.15_PT096H.grib2 2026-04-28 04:29 765K
20260428T00Z_MSC_GDPS_GeopotentialHeight_IsbL-1000_LatLon0.15_PT096H.grib2 2026-04-28 04:29 786K
20260428T00Z_MSC_GDPS_GeopotentialHeight_IsbL-1015_LatLon0.15_PT096H.grib2 2026-04-28 04:29 808K
20260428T00Z_MSC_GDPS_Humidex_Sfc_LatLon0.15_PT096H.grib2 2026-04-28 04:29 5.3M
20260428T00Z_MSC_GDPS_IcePellets-Accum12h_Sfc_LatLon0.15_PT096H.grib2 2026-04-28 04:29 23K
20260428T00Z_MSC_GDPS_IcePellets-Accum1h_Sfc_LatLon0.15_PT096H.grib2 2026-04-28 04:29 9.0K
20260428T00Z_MSC_GDPS_IcePellets-Accum24h_Sfc_LatLon0.15_PT096H.grib2 2026-04-28 04:29 29K
20260428T00Z_MSC_GDPS_IcePellets-Accum3h_Sfc_LatLon0.15_PT096H.grib2 2026-04-28 04:29 12K
20260428T00Z_MSC_GDPS_IcePellets-Accum6h_Sfc_LatLon0.15_PT096H.grib2 2026-04-28 04:29 15K
20260428T00Z_MSC_GDPS_IcePellets-Accum_Sfc_LatLon0.15_PT096H.grib2 2026-04-28 04:29 97K
20260428T00Z_MSC_GDPS_KIndex_Sfc_LatLon0.15_PT096H.grib2 2026-04-28 04:29 6.4M
20260428T00Z_MSC_GDPS_LatentHeatNetFlux_Sfc_LatLon0.15_PT096H.grib2 2026-04-28 04:29 656K
20260428T00Z_MSC_GDPS_LiftedIndex-MU-VT_IsbL-0500_LatLon0.15_PT096H.grib2 2026-04-28 04:29 5.3M
20260428T00Z_MSC_GDPS_NetLongwaveRadiationFlux-Accum_Sfc_LatLon0.15_PT096H.grib2 2026-04-28 04:29 958K
20260428T00Z_MSC_GDPS_NetShortwaveRadiationFlux-Accum_Sfc_LatLon0.15_PT096H.grib2 2026-04-28 04:29 933K
20260428T00Z_MSC_GDPS_O3MixingRatio_LatLon0.15_PT096H.grib2 2026-04-28 04:54 1.9M
20260428T00Z_MSC_GDPS_O3_EAtm_LatLon0.15_PT096H.grib2 2026-04-28 04:54 2.4M
20260428T00Z_MSC_GDPS_PlanetaryBoundaryLayerHeight_Sfc_LatLon0.15_PT096H.grib2 2026-04-28 04:29 2.4M
20260428T00Z_MSC_GDPS_Precip-Accum12h_Sfc_LatLon0.15_PT096H.grib2 2026-04-28 04:29 4.3M
20260428T00Z_MSC_GDPS_Precip-Accum1h_Sfc_LatLon0.15_PT096H.grib2 2026-04-28 04:29 3.2M
20260428T00Z_MSC_GDPS_Precip-Accum24h_Sfc_LatLon0.15_PT096H.grib2 2026-04-28 04:29 4.5M
20260428T00Z_MSC_GDPS_Precip-Accum3h_Sfc_LatLon0.15_PT096H.grib2 2026-04-28 04:29 3.5M
20260428T00Z_MSC_GDPS_Precip-Accum6h_Sfc_LatLon0.15_PT096H.grib2 2026-04-28 04:29 3.9M
20260428T00Z_MSC_GDPS_Precip-Accum_Sfc_LatLon0.15_PT096H.grib2 2026-04-28 04:29 5.4M
20260428T00Z_MSC_GDPS_PrecipRate_Sfc_LatLon0.15_PT096H.grib2 2026-04-28 04:29 3.0M
20260428T00Z_MSC_GDPS_PrecipType-Instant_Sfc_LatLon0.15_PT096H.grib2 2026-04-28 04:29 1.5M
20260428T00Z_MSC_GDPS_Pressure_MSL_LatLon0.15_PT096H.grib2 2026-04-28 04:29 821K
20260428T00Z_MSC_GDPS_Pressure_PVU-1.5_LatLon0.15_PT096H.grib2 2026-04-28 04:29 5.8M
20260428T00Z_MSC_GDPS_Pressure_PVU-1_LatLon0.15_PT096H.grib2 2026-04-28 04:29 6.0M
20260428T00Z_MSC_GDPS_Pressure_PVU-2_LatLon0.15_PT096H.grib2 2026-04-28 04:29 5.6M
20260428T00Z_MSC_GDPS_Pressure_Sfc_LatLon0.15_PT096H.grib2 2026-04-28 04:29 1.1M
20260428T00Z_MSC_GDPS_RadiativeTemp_Sfc_LatLon0.15_PT096H.grib2 2026-04-28 04:29 653K
20260428T00Z_MSC_GDPS_Rain-Accum12h_Sfc_LatLon0.15_PT096H.grib2 2026-04-28 04:29 2.9M
20260428T00Z_MSC_GDPS_Rain-Accum1h_Sfc_LatLon0.15_PT096H.grib2 2026-04-28 04:29 1.6M
20260428T00Z_MSC_GDPS_Rain-Accum24h_Sfc_LatLon0.15_PT096H.grib2 2026-04-28 04:29 3.2M
20260428T00Z_MSC_GDPS_Rain-Accum3h_Sfc_LatLon0.15_PT096H.grib2 2026-04-28 04:29 1.7M
20260428T00Z_MSC_GDPS_Rain-Accum6h_Sfc_LatLon0.15_PT096H.grib2 2026-04-28 04:29 2.4M
20260428T00Z_MSC_GDPS_Rain-Accum_Sfc_LatLon0.15_PT096H.grib2 2026-04-28 04:29 4.1M
20260428T00Z_MSC_GDPS_RelativeHumidity_AGL-2m_LatLon0.15_PT096H.grib2 2026-04-28 04:29 1.0M
20260428T00Z_MSC_GDPS_RelativeHumidity_IsbL-0010_LatLon0.15_PT096H.grib2 2026-04-28 04:29 190K
20260428T00Z_MSC_GDPS_RelativeHumidity_IsbL-0020_LatLon0.15_PT096H.grib2 2026-04-28 04:29 159K
20260428T00Z_MSC_GDPS_RelativeHumidity_IsbL-0030_LatLon0.15_PT096H.grib2 2026-04-28 04:29 260K
20260428T00Z_MSC_GDPS_RelativeHumidity_IsbL-0050_LatLon0.15_PT096H.grib2 2026-04-28 04:29 503K
20260428T00Z_MSC_GDPS_RelativeHumidity_IsbL-0100_LatLon0.15_PT096H.grib2 2026-04-28 04:29 499K
20260428T00Z_MSC_GDPS_RelativeHumidity_IsbL-0150_LatLon0.15_PT096H.grib2 2026-04-28 04:29 655K
20260428T00Z_MSC_GDPS_RelativeHumidity_IsbL-0175_LatLon0.15_PT096H.grib2 2026-04-28 04:29 778K
20260428T00Z_MSC_GDPS_RelativeHumidity_IsbL-0200_LatLon0.15_PT096H.grib2 2026-04-28 04:29 702K
20260428T00Z_MSC_GDPS_RelativeHumidity_IsbL-0225_LatLon0.15_PT096H.grib2 2026-04-28 04:29 789K
20260428T00Z_MSC_GDPS_RelativeHumidity_IsbL-0250_LatLon0.15_PT096H.grib2 2026-04-28 04:29 865K
20260428T00Z_MSC_GDPS_RelativeHumidity_IsbL-0275_LatLon0.15_PT096H.grib2 2026-04-28 04:29 884K
20260428T00Z_MSC_GDPS_RelativeHumidity_IsbL-0300_LatLon0.15_PT096H.grib2 2026-04-28 04:29 923K
20260428T00Z_MSC_GDPS_RelativeHumidity_IsbL-0350_LatLon0.15_PT096H.grib2 2026-04-28 04:29 938K
20260428T00Z_MSC_GDPS_RelativeHumidity_IsbL-0400_LatLon0.15_PT096H.grib2 2026-04-28 04:29 964K
20260428T00Z_MSC_GDPS_RelativeHumidity_IsbL-0450_LatLon0.15_PT096H.grib2 2026-04-28 04:29 1.0M
20260428T00Z_MSC_GDPS_RelativeHumidity_IsbL-0500_LatLon0.15_PT096H.grib2 2026-04-28 04:29 1.0M
20260428T00Z_MSC_GDPS_RelativeHumidity_IsbL-0550_LatLon0.15_PT096H.grib2 2026-04-28 04:29 1.0M
20260428T00Z_MSC_GDPS_RelativeHumidity_IsbL-0600_LatLon0.15_PT096H.grib2 2026-04-28 04:29 1.0M
20260428T00Z_MSC_GDPS_RelativeHumidity_IsbL-0650_LatLon0.15_PT096H.grib2 2026-04-28 04:29 1.1M
20260428T00Z_MSC_GDPS_RelativeHumidity_IsbL-0700_LatLon0.15_PT096H.grib2 2026-04-28 04:29 1.1M
20260428T00Z_MSC_GDPS_RelativeHumidity_IsbL-0750_LatLon0.15_PT096H.grib2 2026-04-28 04:29 1.2M
20260428T00Z_MSC_GDPS_RelativeHumidity_IsbL-0800_LatLon0.15_PT096H.grib2 2026-04-28 04:29 1.3M
20260428T00Z_MSC_GDPS_RelativeHumidity_IsbL-0850_LatLon0.15_PT096H.grib2 2026-04-28 04:29 1.3M
20260428T00Z_MSC_GDPS_RelativeHumidity_IsbL-0875_LatLon0.15_PT096H.grib2 2026-04-28 04:29 1.3M
20260428T00Z_MSC_GDPS_RelativeHumidity_IsbL-0900_LatLon0.15_PT096H.grib2 2026-04-28 04:29 1.2M
20260428T00Z_MSC_GDPS_RelativeHumidity_IsbL-0925_LatLon0.15_PT096H.grib2 2026-04-28 04:29 1.2M
20260428T00Z_MSC_GDPS_RelativeHumidity_IsbL-0950_LatLon0.15_PT096H.grib2 2026-04-28 04:29 1.2M
20260428T00Z_MSC_GDPS_RelativeHumidity_IsbL-0970_LatLon0.15_PT096H.grib2 2026-04-28 04:29 1.2M
20260428T00Z_MSC_GDPS_RelativeHumidity_IsbL-0985_LatLon0.15_PT096H.grib2 2026-04-28 04:29 1.1M
20260428T00Z_MSC_GDPS_RelativeHumidity_IsbL-1000_LatLon0.15_PT096H.grib2 2026-04-28 04:29 1.1M
20260428T00Z_MSC_GDPS_RelativeHumidity_IsbL-1015_LatLon0.15_PT096H.grib2 2026-04-28 04:29 1.0M
20260428T00Z_MSC_GDPS_RelativeVorticity_IsbL-0200_LatLon0.15_PT096H.grib2 2026-04-28 04:29 1.5M
20260428T00Z_MSC_GDPS_RelativeVorticity_IsbL-0250_LatLon0.15_PT096H.grib2 2026-04-28 04:29 1.3M
20260428T00Z_MSC_GDPS_RelativeVorticity_IsbL-0500_LatLon0.15_PT096H.grib2 2026-04-28 04:29 1.4M
20260428T00Z_MSC_GDPS_RelativeVorticity_IsbL-0700_LatLon0.15_PT096H.grib2 2026-04-28 04:29 1.6M
20260428T00Z_MSC_GDPS_RelativeVorticity_IsbL-0850_LatLon0.15_PT096H.grib2 2026-04-28 04:29 1.6M
20260428T00Z_MSC_GDPS_Runoff-Accum_Sfc_LatLon0.15_PT096H.grib2 2026-04-28 04:29 128K
20260428T00Z_MSC_GDPS_SensibleHeatNetFlux_Sfc_LatLon0.15_PT096H.grib2 2026-04-28 04:29 608K
20260428T00Z_MSC_GDPS_ShowalterIndex_IsbL-0500_LatLon0.15_PT096H.grib2 2026-04-28 04:29 6.2M
20260428T00Z_MSC_GDPS_Snow-Accum12h_Sfc_LatLon0.15_PT096H.grib2 2026-04-28 04:29 1.4M
20260428T00Z_MSC_GDPS_Snow-Accum1h_Sfc_LatLon0.15_PT096H.grib2 2026-04-28 04:29 1.1M
20260428T00Z_MSC_GDPS_Snow-Accum24h_Sfc_LatLon0.15_PT096H.grib2 2026-04-28 04:29 1.6M
20260428T00Z_MSC_GDPS_Snow-Accum3h_Sfc_LatLon0.15_PT096H.grib2 2026-04-28 04:29 1.0M
20260428T00Z_MSC_GDPS_Snow-Accum6h_Sfc_LatLon0.15_PT096H.grib2 2026-04-28 04:29 1.3M
20260428T00Z_MSC_GDPS_Snow-Accum_Sfc_LatLon0.15_PT096H.grib2 2026-04-28 04:29 2.0M
20260428T00Z_MSC_GDPS_SnowDensity_Sfc_LatLon0.15_PT096H.grib2 2026-04-28 04:29 268K
20260428T00Z_MSC_GDPS_SnowDepth_Sfc_LatLon0.15_PT096H.grib2 2026-04-28 04:29 1.7M
20260428T00Z_MSC_GDPS_SoilTemp_DBS-0to10cm_LatLon0.15_PT096H.grib2 2026-04-28 04:29 507K
20260428T00Z_MSC_GDPS_SoilTemp_Sfc_LatLon0.15_PT096H.grib2 2026-04-28 04:29 558K
20260428T00Z_MSC_GDPS_SoilVolumetricIceContent_Sfc_LatLon0.15_PT096H.grib2 2026-04-28 04:29 203K
20260428T00Z_MSC_GDPS_SoilVolumetricWaterContent_DBS-0to10cm_LatLon0.15_PT096H.grib2 2026-04-28 04:29 586K
20260428T00Z_MSC_GDPS_SoilVolumetricWaterContent_DBS-0to1cm_LatLon0.15_PT096H.grib2 2026-04-28 04:29 649K
20260428T00Z_MSC_GDPS_SpecificHumidity_AGL-120m_LatLon0.15_PT096H.grib2 2026-04-28 04:29 1.1M
20260428T00Z_MSC_GDPS_SpecificHumidity_AGL-2m_LatLon0.15_PT096H.grib2 2026-04-28 04:29 1.2M
20260428T00Z_MSC_GDPS_SpecificHumidity_AGL-40m_LatLon0.15_PT096H.grib2 2026-04-28 04:29 1.1M
20260428T00Z_MSC_GDPS_SpecificHumidity_AGL-80m_LatLon0.15_PT096H.grib2 2026-04-28 04:29 1.1M
20260428T00Z_MSC_GDPS_SpecificHumidity_IsbL-0001_LatLon0.15_PT096H.grib2 2026-04-28 04:29 1.2M
20260428T00Z_MSC_GDPS_SpecificHumidity_IsbL-0005_LatLon0.15_PT096H.grib2 2026-04-28 04:29 1.1M
20260428T00Z_MSC_GDPS_SpecificHumidity_IsbL-0010_LatLon0.15_PT096H.grib2 2026-04-28 04:29 1.3M
20260428T00Z_MSC_GDPS_SpecificHumidity_IsbL-0020_LatLon0.15_PT096H.grib2 2026-04-28 04:29 1.3M
20260428T00Z_MSC_GDPS_SpecificHumidity_IsbL-0030_LatLon0.15_PT096H.grib2 2026-04-28 04:29 1.3M
20260428T00Z_MSC_GDPS_SpecificHumidity_IsbL-0050_LatLon0.15_PT096H.grib2 2026-04-28 04:29 1.3M
20260428T00Z_MSC_GDPS_SpecificHumidity_IsbL-0100_LatLon0.15_PT096H.grib2 2026-04-28 04:29 1.3M
20260428T00Z_MSC_GDPS_SpecificHumidity_IsbL-0150_LatLon0.15_PT096H.grib2 2026-04-28 04:29 1.2M
20260428T00Z_MSC_GDPS_SpecificHumidity_IsbL-0175_LatLon0.15_PT096H.grib2 2026-04-28 04:29 1.2M
20260428T00Z_MSC_GDPS_SpecificHumidity_IsbL-0200_LatLon0.15_PT096H.grib2 2026-04-28 04:29 1.3M
20260428T00Z_MSC_GDPS_SpecificHumidity_IsbL-0225_LatLon0.15_PT096H.grib2 2026-04-28 04:29 1.3M
20260428T00Z_MSC_GDPS_SpecificHumidity_IsbL-0250_LatLon0.15_PT096H.grib2 2026-04-28 04:29 1.4M
20260428T00Z_MSC_GDPS_SpecificHumidity_IsbL-0275_LatLon0.15_PT096H.grib2 2026-04-28 04:29 1.3M
20260428T00Z_MSC_GDPS_SpecificHumidity_IsbL-0300_LatLon0.15_PT096H.grib2 2026-04-28 04:29 1.2M
20260428T00Z_MSC_GDPS_SpecificHumidity_IsbL-0350_LatLon0.15_PT096H.grib2 2026-04-28 04:29 1.2M
20260428T00Z_MSC_GDPS_SpecificHumidity_IsbL-0400_LatLon0.15_PT096H.grib2 2026-04-28 04:29 1.4M
20260428T00Z_MSC_GDPS_SpecificHumidity_IsbL-0450_LatLon0.15_PT096H.grib2 2026-04-28 04:29 1.6M
20260428T00Z_MSC_GDPS_SpecificHumidity_IsbL-0500_LatLon0.15_PT096H.grib2 2026-04-28 04:29 1.4M
20260428T00Z_MSC_GDPS_SpecificHumidity_IsbL-0550_LatLon0.15_PT096H.grib2 2026-04-28 04:29 1.6M
20260428T00Z_MSC_GDPS_SpecificHumidity_IsbL-0600_LatLon0.15_PT096H.grib2 2026-04-28 04:29 1.4M
20260428T00Z_MSC_GDPS_SpecificHumidity_IsbL-0650_LatLon0.15_PT096H.grib2 2026-04-28 04:29 1.5M
20260428T00Z_MSC_GDPS_SpecificHumidity_IsbL-0700_LatLon0.15_PT096H.grib2 2026-04-28 04:29 1.6M
20260428T00Z_MSC_GDPS_SpecificHumidity_IsbL-0750_LatLon0.15_PT096H.grib2 2026-04-28 04:29 1.7M
20260428T00Z_MSC_GDPS_SpecificHumidity_IsbL-0800_LatLon0.15_PT096H.grib2 2026-04-28 04:29 1.9M
20260428T00Z_MSC_GDPS_SpecificHumidity_IsbL-0850_LatLon0.15_PT096H.grib2 2026-04-28 04:29 1.9M
20260428T00Z_MSC_GDPS_SpecificHumidity_IsbL-0875_LatLon0.15_PT096H.grib2 2026-04-28 04:29 1.9M
20260428T00Z_MSC_GDPS_SpecificHumidity_IsbL-0900_LatLon0.15_PT096H.grib2 2026-04-28 04:29 1.6M
20260428T00Z_MSC_GDPS_SpecificHumidity_IsbL-0925_LatLon0.15_PT096H.grib2 2026-04-28 04:29 1.6M
20260428T00Z_MSC_GDPS_SpecificHumidity_IsbL-0950_LatLon0.15_PT096H.grib2 2026-04-28 04:29 1.5M
20260428T00Z_MSC_GDPS_SpecificHumidity_IsbL-0970_LatLon0.15_PT096H.grib2 2026-04-28 04:29 1.5M
20260428T00Z_MSC_GDPS_SpecificHumidity_IsbL-0985_LatLon0.15_PT096H.grib2 2026-04-28 04:29 1.5M
20260428T00Z_MSC_GDPS_SpecificHumidity_IsbL-1000_LatLon0.15_PT096H.grib2 2026-04-28 04:29 1.5M
20260428T00Z_MSC_GDPS_SpecificHumidity_IsbL-1015_LatLon0.15_PT096H.grib2 2026-04-28 04:29 1.4M
20260428T00Z_MSC_GDPS_SpecificHumidity_Sfc_LatLon0.15_PT096H.grib2 2026-04-28 04:29 629K
20260428T00Z_MSC_GDPS_Thickness_IsbL-0850to0700_LatLon0.15_PT096H.grib2 2026-04-28 04:29 462K
20260428T00Z_MSC_GDPS_Thickness_IsbL-1000to0500_LatLon0.15_PT096H.grib2 2026-04-28 04:29 367K
20260428T00Z_MSC_GDPS_Thickness_IsbL-1000to0850_LatLon0.15_PT096H.grib2 2026-04-28 04:29 484K
20260428T00Z_MSC_GDPS_TotalCloudCover_Sfc_LatLon0.15_PT096H.grib2 2026-04-28 04:29 830K
20260428T00Z_MSC_GDPS_TotalTotalsIndex_Sfc_LatLon0.15_PT096H.grib2 2026-04-28 04:29 6.2M
20260428T00Z_MSC_GDPS_UVIndex-ClearSky_Sfc_LatLon0.15_PT096H.grib2 2026-04-28 04:54 1.0M
20260428T00Z_MSC_GDPS_UVIndex_Sfc_LatLon0.15_PT096H.grib2 2026-04-28 04:54 1.5M
20260428T00Z_MSC_GDPS_UpwardLongwaveRadiationFlux_NTAtm_LatLon0.15_PT096H.grib2 2026-04-28 04:29 830K
20260428T00Z_MSC_GDPS_VerticalVelocity_IsbL-0200_LatLon0.15_PT096H.grib2 2026-04-28 04:29 1.2M
20260428T00Z_MSC_GDPS_VerticalVelocity_IsbL-0250_LatLon0.15_PT096H.grib2 2026-04-28 04:29 1.0M
20260428T00Z_MSC_GDPS_VerticalVelocity_IsbL-0500_LatLon0.15_PT096H.grib2 2026-04-28 04:29 1.3M
20260428T00Z_MSC_GDPS_VerticalVelocity_IsbL-0600_LatLon0.15_PT096H.grib2 2026-04-28 04:29 1.1M
20260428T00Z_MSC_GDPS_VerticalVelocity_IsbL-0700_LatLon0.15_PT096H.grib2 2026-04-28 04:29 1.2M
20260428T00Z_MSC_GDPS_VerticalVelocity_IsbL-0850_LatLon0.15_PT096H.grib2 2026-04-28 04:29 1.3M
20260428T00Z_MSC_GDPS_WindChill_Sfc_LatLon0.15_PT096H.grib2 2026-04-28 04:29 5.3M
20260428T00Z_MSC_GDPS_WindDir_AGL-10m_LatLon0.15_PT096H.grib2 2026-04-28 04:29 1.3M
20260428T00Z_MSC_GDPS_WindDir_AGL-120m_LatLon0.15_PT096H.grib2 2026-04-28 04:29 1.3M
20260428T00Z_MSC_GDPS_WindDir_AGL-40m_LatLon0.15_PT096H.grib2 2026-04-28 04:29 1.4M
20260428T00Z_MSC_GDPS_WindDir_AGL-80m_LatLon0.15_PT096H.grib2 2026-04-28 04:29 1.4M
20260428T00Z_MSC_GDPS_WindDir_IsbL-0001_LatLon0.15_PT096H.grib2 2026-04-28 04:29 692K
20260428T00Z_MSC_GDPS_WindDir_IsbL-0005_LatLon0.15_PT096H.grib2 2026-04-28 04:29 780K
20260428T00Z_MSC_GDPS_WindDir_IsbL-0010_LatLon0.15_PT096H.grib2 2026-04-28 04:29 835K
20260428T00Z_MSC_GDPS_WindDir_IsbL-0020_LatLon0.15_PT096H.grib2 2026-04-28 04:29 938K
20260428T00Z_MSC_GDPS_WindDir_IsbL-0030_LatLon0.15_PT096H.grib2 2026-04-28 04:29 910K
20260428T00Z_MSC_GDPS_WindDir_IsbL-0050_LatLon0.15_PT096H.grib2 2026-04-28 04:29 941K
20260428T00Z_MSC_GDPS_WindDir_IsbL-0100_LatLon0.15_PT096H.grib2 2026-04-28 04:29 1.0M
20260428T00Z_MSC_GDPS_WindDir_IsbL-0150_LatLon0.15_PT096H.grib2 2026-04-28 04:29 1.0M
20260428T00Z_MSC_GDPS_WindDir_IsbL-0175_LatLon0.15_PT096H.grib2 2026-04-28 04:29 1.0M
20260428T00Z_MSC_GDPS_WindDir_IsbL-0200_LatLon0.15_PT096H.grib2 2026-04-28 04:29 1.1M
20260428T00Z_MSC_GDPS_WindDir_IsbL-0225_LatLon0.15_PT096H.grib2 2026-04-28 04:29 1.1M
20260428T00Z_MSC_GDPS_WindDir_IsbL-0250_LatLon0.15_PT096H.grib2 2026-04-28 04:29 1.1M
20260428T00Z_MSC_GDPS_WindDir_IsbL-0275_LatLon0.15_PT096H.grib2 2026-04-28 04:29 1.2M
20260428T00Z_MSC_GDPS_WindDir_IsbL-0300_LatLon0.15_PT096H.grib2 2026-04-28 04:29 1.2M
20260428T00Z_MSC_GDPS_WindDir_IsbL-0350_LatLon0.15_PT096H.grib2 2026-04-28 04:29 1.2M
20260428T00Z_MSC_GDPS_WindDir_IsbL-0400_LatLon0.15_PT096H.grib2 2026-04-28 04:29 1.2M
20260428T00Z_MSC_GDPS_WindDir_IsbL-0450_LatLon0.15_PT096H.grib2 2026-04-28 04:29 1.3M
20260428T00Z_MSC_GDPS_WindDir_IsbL-0500_LatLon0.15_PT096H.grib2 2026-04-28 04:29 1.3M
20260428T00Z_MSC_GDPS_WindDir_IsbL-0550_LatLon0.15_PT096H.grib2 2026-04-28 04:29 1.4M
20260428T00Z_MSC_GDPS_WindDir_IsbL-0600_LatLon0.15_PT096H.grib2 2026-04-28 04:29 1.4M
20260428T00Z_MSC_GDPS_WindDir_IsbL-0650_LatLon0.15_PT096H.grib2 2026-04-28 04:29 1.5M
20260428T00Z_MSC_GDPS_WindDir_IsbL-0700_LatLon0.15_PT096H.grib2 2026-04-28 04:29 1.6M
20260428T00Z_MSC_GDPS_WindDir_IsbL-0750_LatLon0.15_PT096H.grib2 2026-04-28 04:29 1.7M
20260428T00Z_MSC_GDPS_WindDir_IsbL-0800_LatLon0.15_PT096H.grib2 2026-04-28 04:29 1.8M
20260428T00Z_MSC_GDPS_WindDir_IsbL-0850_LatLon0.15_PT096H.grib2 2026-04-28 04:29 1.9M
20260428T00Z_MSC_GDPS_WindDir_IsbL-0875_LatLon0.15_PT096H.grib2 2026-04-28 04:29 2.0M
20260428T00Z_MSC_GDPS_WindDir_IsbL-0900_LatLon0.15_PT096H.grib2 2026-04-28 04:29 2.0M
20260428T00Z_MSC_GDPS_WindDir_IsbL-0925_LatLon0.15_PT096H.grib2 2026-04-28 04:29 2.0M
20260428T00Z_MSC_GDPS_WindDir_IsbL-0950_LatLon0.15_PT096H.grib2 2026-04-28 04:29 2.0M
20260428T00Z_MSC_GDPS_WindDir_IsbL-0970_LatLon0.15_PT096H.grib2 2026-04-28 04:29 2.0M
20260428T00Z_MSC_GDPS_WindDir_IsbL-0985_LatLon0.15_PT096H.grib2 2026-04-28 04:29 2.0M
20260428T00Z_MSC_GDPS_WindDir_IsbL-1000_LatLon0.15_PT096H.grib2 2026-04-28 04:29 2.1M
20260428T00Z_MSC_GDPS_WindDir_IsbL-1015_LatLon0.15_PT096H.grib2 2026-04-28 04:29 2.0M
20260428T00Z_MSC_GDPS_WindGust-Max_AGL-10m_LatLon0.15_PT096H.grib2 2026-04-28 04:29 2.2M
20260428T00Z_MSC_GDPS_WindGust-Min_AGL-10m_LatLon0.15_PT096H.grib2 2026-04-28 04:29 2.2M
20260428T00Z_MSC_GDPS_WindGust_AGL-10m_LatLon0.15_PT096H.grib2 2026-04-28 04:29 2.1M
20260428T00Z_MSC_GDPS_WindSpeed_AGL-10m_LatLon0.15_PT096H.grib2 2026-04-28 04:29 1.1M
20260428T00Z_MSC_GDPS_WindSpeed_AGL-120m_LatLon0.15_PT096H.grib2 2026-04-28 04:29 1.2M
20260428T00Z_MSC_GDPS_WindSpeed_AGL-40m_LatLon0.15_PT096H.grib2 2026-04-28 04:29 1.2M
20260428T00Z_MSC_GDPS_WindSpeed_AGL-80m_LatLon0.15_PT096H.grib2 2026-04-28 04:29 1.2M
20260428T00Z_MSC_GDPS_WindSpeed_IsbL-0001_LatLon0.15_PT096H.grib2 2026-04-28 04:29 642K
20260428T00Z_MSC_GDPS_WindSpeed_IsbL-0005_LatLon0.15_PT096H.grib2 2026-04-28 04:29 688K
20260428T00Z_MSC_GDPS_WindSpeed_IsbL-0010_LatLon0.15_PT096H.grib2 2026-04-28 04:29 624K
20260428T00Z_MSC_GDPS_WindSpeed_IsbL-0020_LatLon0.15_PT096H.grib2 2026-04-28 04:29 852K
20260428T00Z_MSC_GDPS_WindSpeed_IsbL-0030_LatLon0.15_PT096H.grib2 2026-04-28 04:29 853K
20260428T00Z_MSC_GDPS_WindSpeed_IsbL-0050_LatLon0.15_PT096H.grib2 2026-04-28 04:29 897K
20260428T00Z_MSC_GDPS_WindSpeed_IsbL-0100_LatLon0.15_PT096H.grib2 2026-04-28 04:29 1.1M
20260428T00Z_MSC_GDPS_WindSpeed_IsbL-0150_LatLon0.15_PT096H.grib2 2026-04-28 04:29 940K
20260428T00Z_MSC_GDPS_WindSpeed_IsbL-0175_LatLon0.15_PT096H.grib2 2026-04-28 04:29 1.0M
20260428T00Z_MSC_GDPS_WindSpeed_IsbL-0200_LatLon0.15_PT096H.grib2 2026-04-28 04:29 1.1M
20260428T00Z_MSC_GDPS_WindSpeed_IsbL-0225_LatLon0.15_PT096H.grib2 2026-04-28 04:29 1.1M
20260428T00Z_MSC_GDPS_WindSpeed_IsbL-0250_LatLon0.15_PT096H.grib2 2026-04-28 04:29 1.1M
20260428T00Z_MSC_GDPS_WindSpeed_IsbL-0275_LatLon0.15_PT096H.grib2 2026-04-28 04:29 1.1M
20260428T00Z_MSC_GDPS_WindSpeed_IsbL-0300_LatLon0.15_PT096H.grib2 2026-04-28 04:29 1.1M
20260428T00Z_MSC_GDPS_WindSpeed_IsbL-0350_LatLon0.15_PT096H.grib2 2026-04-28 04:29 1.1M
20260428T00Z_MSC_GDPS_WindSpeed_IsbL-0400_LatLon0.15_PT096H.grib2 2026-04-28 04:29 1.1M
20260428T00Z_MSC_GDPS_WindSpeed_IsbL-0450_LatLon0.15_PT096H.grib2 2026-04-28 04:29 1.1M
20260428T00Z_MSC_GDPS_WindSpeed_IsbL-0500_LatLon0.15_PT096H.grib2 2026-04-28 04:29 1.1M
20260428T00Z_MSC_GDPS_WindSpeed_IsbL-0550_LatLon0.15_PT096H.grib2 2026-04-28 04:29 1.1M
20260428T00Z_MSC_GDPS_WindSpeed_IsbL-0600_LatLon0.15_PT096H.grib2 2026-04-28 04:29 1.1M
20260428T00Z_MSC_GDPS_WindSpeed_IsbL-0650_LatLon0.15_PT096H.grib2 2026-04-28 04:29 1.4M
20260428T00Z_MSC_GDPS_WindSpeed_IsbL-0700_LatLon0.15_PT096H.grib2 2026-04-28 04:29 1.5M
20260428T00Z_MSC_GDPS_WindSpeed_IsbL-0750_LatLon0.15_PT096H.grib2 2026-04-28 04:29 1.5M
20260428T00Z_MSC_GDPS_WindSpeed_IsbL-0800_LatLon0.15_PT096H.grib2 2026-04-28 04:29 1.6M
20260428T00Z_MSC_GDPS_WindSpeed_IsbL-0850_LatLon0.15_PT096H.grib2 2026-04-28 04:29 1.7M
20260428T00Z_MSC_GDPS_WindSpeed_IsbL-0875_LatLon0.15_PT096H.grib2 2026-04-28 04:29 1.8M
20260428T00Z_MSC_GDPS_WindSpeed_IsbL-0900_LatLon0.15_PT096H.grib2 2026-04-28 04:29 1.8M
20260428T00Z_MSC_GDPS_WindSpeed_IsbL-0925_LatLon0.15_PT096H.grib2 2026-04-28 04:29 1.8M
20260428T00Z_MSC_GDPS_WindSpeed_IsbL-0950_LatLon0.15_PT096H.grib2 2026-04-28 04:29 1.9M
20260428T00Z_MSC_GDPS_WindSpeed_IsbL-0970_LatLon0.15_PT096H.grib2 2026-04-28 04:29 1.9M
20260428T00Z_MSC_GDPS_WindSpeed_IsbL-0985_LatLon0.15_PT096H.grib2 2026-04-28 04:29 1.9M
20260428T00Z_MSC_GDPS_WindSpeed_IsbL-1000_LatLon0.15_PT096H.grib2 2026-04-28 04:29 1.8M
20260428T00Z_MSC_GDPS_WindSpeed_IsbL-1015_LatLon0.15_PT096H.grib2 2026-04-28 04:29 1.8M
20260428T00Z_MSC_GDPS_WindU_AGL-10m_LatLon0.15_PT096H.grib2 2026-04-28 04:29 1.3M
20260428T00Z_MSC_GDPS_WindU_AGL-120m_LatLon0.15_PT096H.grib2 2026-04-28 04:29 1.0M
20260428T00Z_MSC_GDPS_WindU_AGL-40m_LatLon0.15_PT096H.grib2 2026-04-28 04:29 971K
20260428T00Z_MSC_GDPS_WindU_AGL-80m_LatLon0.15_PT096H.grib2 2026-04-28 04:29 1.0M
20260428T00Z_MSC_GDPS_WindU_IsbL-0001_LatLon0.15_PT096H.grib2 2026-04-28 04:29 499K
20260428T00Z_MSC_GDPS_WindU_IsbL-0005_LatLon0.15_PT096H.grib2 2026-04-28 04:29 687K
20260428T00Z_MSC_GDPS_WindU_IsbL-0010_LatLon0.15_PT096H.grib2 2026-04-28 04:29 697K
20260428T00Z_MSC_GDPS_WindU_IsbL-0020_LatLon0.15_PT096H.grib2 2026-04-28 04:29 726K
20260428T00Z_MSC_GDPS_WindU_IsbL-0030_LatLon0.15_PT096H.grib2 2026-04-28 04:29 730K
20260428T00Z_MSC_GDPS_WindU_IsbL-0050_LatLon0.15_PT096H.grib2 2026-04-28 04:29 691K
20260428T00Z_MSC_GDPS_WindU_IsbL-0100_LatLon0.15_PT096H.grib2 2026-04-28 04:29 918K
20260428T00Z_MSC_GDPS_WindU_IsbL-0150_LatLon0.15_PT096H.grib2 2026-04-28 04:29 1.0M
20260428T00Z_MSC_GDPS_WindU_IsbL-0175_LatLon0.15_PT096H.grib2 2026-04-28 04:29 1.0M
20260428T00Z_MSC_GDPS_WindU_IsbL-0200_LatLon0.15_PT096H.grib2 2026-04-28 04:29 841K
20260428T00Z_MSC_GDPS_WindU_IsbL-0225_LatLon0.15_PT096H.grib2 2026-04-28 04:29 852K
20260428T00Z_MSC_GDPS_WindU_IsbL-0250_LatLon0.15_PT096H.grib2 2026-04-28 04:29 852K
20260428T00Z_MSC_GDPS_WindU_IsbL-0275_LatLon0.15_PT096H.grib2 2026-04-28 04:29 876K
20260428T00Z_MSC_GDPS_WindU_IsbL-0300_LatLon0.15_PT096H.grib2 2026-04-28 04:29 864K
20260428T00Z_MSC_GDPS_WindU_IsbL-0350_LatLon0.15_PT096H.grib2 2026-04-28 04:29 874K
20260428T00Z_MSC_GDPS_WindU_IsbL-0400_LatLon0.15_PT096H.grib2 2026-04-28 04:29 1.1M
20260428T00Z_MSC_GDPS_WindU_IsbL-0450_LatLon0.15_PT096H.grib2 2026-04-28 04:29 1.1M
20260428T00Z_MSC_GDPS_WindU_IsbL-0500_LatLon0.15_PT096H.grib2 2026-04-28 04:29 1.1M
20260428T00Z_MSC_GDPS_WindU_IsbL-0550_LatLon0.15_PT096H.grib2 2026-04-28 04:29 1.1M
20260428T00Z_MSC_GDPS_WindU_IsbL-0600_LatLon0.15_PT096H.grib2 2026-04-28 04:29 1.1M
20260428T00Z_MSC_GDPS_WindU_IsbL-0650_LatLon0.15_PT096H.grib2 2026-04-28 04:29 1.2M
20260428T00Z_MSC_GDPS_WindU_IsbL-0700_LatLon0.15_PT096H.grib2 2026-04-28 04:29 1.2M
20260428T00Z_MSC_GDPS_WindU_IsbL-0750_LatLon0.15_PT096H.grib2 2026-04-28 04:29 1.3M
20260428T00Z_MSC_GDPS_WindU_IsbL-0800_LatLon0.15_PT096H.grib2 2026-04-28 04:29 1.3M
20260428T00Z_MSC_GDPS_WindU_IsbL-0850_LatLon0.15_PT096H.grib2 2026-04-28 04:29 1.4M
20260428T00Z_MSC_GDPS_WindU_IsbL-0875_LatLon0.15_PT096H.grib2 2026-04-28 04:29 1.5M
20260428T00Z_MSC_GDPS_WindU_IsbL-0900_LatLon0.15_PT096H.grib2 2026-04-28 04:29 1.5M
20260428T00Z_MSC_GDPS_WindU_IsbL-0925_LatLon0.15_PT096H.grib2 2026-04-28 04:29 1.5M
20260428T00Z_MSC_GDPS_WindU_IsbL-0950_LatLon0.15_PT096H.grib2 2026-04-28 04:29 1.4M
20260428T00Z_MSC_GDPS_WindU_IsbL-0970_LatLon0.15_PT096H.grib2 2026-04-28 04:29 1.4M
20260428T00Z_MSC_GDPS_WindU_IsbL-0985_LatLon0.15_PT096H.grib2 2026-04-28 04:29 1.4M
20260428T00Z_MSC_GDPS_WindU_IsbL-1000_LatLon0.15_PT096H.grib2 2026-04-28 04:29 1.4M
20260428T00Z_MSC_GDPS_WindU_IsbL-1015_LatLon0.15_PT096H.grib2 2026-04-28 04:29 1.3M
20260428T00Z_MSC_GDPS_WindV_AGL-10m_LatLon0.15_PT096H.grib2 2026-04-28 04:29 1.6M
20260428T00Z_MSC_GDPS_WindV_AGL-120m_LatLon0.15_PT096H.grib2 2026-04-28 04:29 1.0M
20260428T00Z_MSC_GDPS_WindV_AGL-40m_LatLon0.15_PT096H.grib2 2026-04-28 04:29 968K
20260428T00Z_MSC_GDPS_WindV_AGL-80m_LatLon0.15_PT096H.grib2 2026-04-28 04:29 1.0M
20260428T00Z_MSC_GDPS_WindV_IsbL-0001_LatLon0.15_PT096H.grib2 2026-04-28 04:29 777K
20260428T00Z_MSC_GDPS_WindV_IsbL-0005_LatLon0.15_PT096H.grib2 2026-04-28 04:29 758K
20260428T00Z_MSC_GDPS_WindV_IsbL-0010_LatLon0.15_PT096H.grib2 2026-04-28 04:29 789K
20260428T00Z_MSC_GDPS_WindV_IsbL-0020_LatLon0.15_PT096H.grib2 2026-04-28 04:29 846K
20260428T00Z_MSC_GDPS_WindV_IsbL-0030_LatLon0.15_PT096H.grib2 2026-04-28 04:29 845K
20260428T00Z_MSC_GDPS_WindV_IsbL-0050_LatLon0.15_PT096H.grib2 2026-04-28 04:29 898K
20260428T00Z_MSC_GDPS_WindV_IsbL-0100_LatLon0.15_PT096H.grib2 2026-04-28 04:29 1.1M
20260428T00Z_MSC_GDPS_WindV_IsbL-0150_LatLon0.15_PT096H.grib2 2026-04-28 04:29 1.0M
20260428T00Z_MSC_GDPS_WindV_IsbL-0175_LatLon0.15_PT096H.grib2 2026-04-28 04:29 1.0M
20260428T00Z_MSC_GDPS_WindV_IsbL-0200_LatLon0.15_PT096H.grib2 2026-04-28 04:29 840K
20260428T00Z_MSC_GDPS_WindV_IsbL-0225_LatLon0.15_PT096H.grib2 2026-04-28 04:29 848K
20260428T00Z_MSC_GDPS_WindV_IsbL-0250_LatLon0.15_PT096H.grib2 2026-04-28 04:29 844K
20260428T00Z_MSC_GDPS_WindV_IsbL-0275_LatLon0.15_PT096H.grib2 2026-04-28 04:29 868K
20260428T00Z_MSC_GDPS_WindV_IsbL-0300_LatLon0.15_PT096H.grib2 2026-04-28 04:29 854K
20260428T00Z_MSC_GDPS_WindV_IsbL-0350_LatLon0.15_PT096H.grib2 2026-04-28 04:29 865K
20260428T00Z_MSC_GDPS_WindV_IsbL-0400_LatLon0.15_PT096H.grib2 2026-04-28 04:29 870K
20260428T00Z_MSC_GDPS_WindV_IsbL-0450_LatLon0.15_PT096H.grib2 2026-04-28 04:29 1.1M
20260428T00Z_MSC_GDPS_WindV_IsbL-0500_LatLon0.15_PT096H.grib2 2026-04-28 04:29 1.1M
20260428T00Z_MSC_GDPS_WindV_IsbL-0550_LatLon0.15_PT096H.grib2 2026-04-28 04:29 1.1M
20260428T00Z_MSC_GDPS_WindV_IsbL-0600_LatLon0.15_PT096H.grib2 2026-04-28 04:29 1.1M
20260428T00Z_MSC_GDPS_WindV_IsbL-0650_LatLon0.15_PT096H.grib2 2026-04-28 04:29 1.2M
20260428T00Z_MSC_GDPS_WindV_IsbL-0700_LatLon0.15_PT096H.grib2 2026-04-28 04:29 1.2M
20260428T00Z_MSC_GDPS_WindV_IsbL-0750_LatLon0.15_PT096H.grib2 2026-04-28 04:29 1.3M
20260428T00Z_MSC_GDPS_WindV_IsbL-0800_LatLon0.15_PT096H.grib2 2026-04-28 04:29 1.3M
20260428T00Z_MSC_GDPS_WindV_IsbL-0850_LatLon0.15_PT096H.grib2 2026-04-28 04:29 1.4M
20260428T00Z_MSC_GDPS_WindV_IsbL-0875_LatLon0.15_PT096H.grib2 2026-04-28 04:29 1.4M
20260428T00Z_MSC_GDPS_WindV_IsbL-0900_LatLon0.15_PT096H.grib2 2026-04-28 04:29 1.5M
20260428T00Z_MSC_GDPS_WindV_IsbL-0925_LatLon0.15_PT096H.grib2 2026-04-28 04:29 1.5M
20260428T00Z_MSC_GDPS_WindV_IsbL-0950_LatLon0.15_PT096H.grib2 2026-04-28 04:29 1.4M
20260428T00Z_MSC_GDPS_WindV_IsbL-0970_LatLon0.15_PT096H.grib2 2026-04-28 04:29 1.4M
20260428T00Z_MSC_GDPS_WindV_IsbL-0985_LatLon0.15_PT096H.grib2 2026-04-28 04:29 1.4M
20260428T00Z_MSC_GDPS_WindV_IsbL-1000_LatLon0.15_PT096H.grib2 2026-04-28 04:29 1.7M
20260428T00Z_MSC_GDPS_WindV_IsbL-1015_LatLon0.15_PT096H.grib2 2026-04-28 04:29 1.6M